[[{"header":{"parameterUnit":"m.s-1","parameterCategory":1,"la1":30.2991,"la2":30.254,"lo1":-89.0895,"lo2":-89.0444,"dy":0.0017,"dx":0.0017,"nx":28,"ny":28,"refTime":"2024-08-21T21:00:00:Z","depth":0,"parameterNumber":2,"parameterNumberName":"U-component_of_WINDS"},"data":[0,0,0,0,0,0,0,0,0,0,0,0,0,0,0,0,0,0,0,0,0,0,0,0,0,0,0,0,0,0,0,0,0,0,0,0,0,0,0,0,0,0,0,0,0,0,0,0,0,0,0,0,0,0,0,0,0,0,-4.8664,-4.8666,0,-4.8833,-4.8835,-4.8837,-4.8738,-4.8733,-4.8728,-4.8724,-4.8896,-4.8905,-4.8914,0,0,0,0,0,0,0,0,0,0,0,0,0,-4.8254,-4.8262,-4.8664,-4.8666,-4.8668,-4.8832,-4.8835,-4.8837,-4.8739,-4.8733,-4.8727,-4.8721,-4.8893,-4.8904,-4.8914,0,0,0,0,0,0,0,0,0,0,0,0,0,-4.8428,-4.8265,-4.8663,-4.8639,-4.8638,-4.8832,-4.8835,-4.8838,-4.874,-4.8733,-4.8725,-4.8719,-4.8889,-4.8903,-4.8916,-4.9143,0,0,-4.8957,-4.8963,0,0,0,0,0,0,0,0,-4.8419,-4.8444,-4.864,-4.8641,-4.864,-4.8757,-4.8753,-4.894,-4.8742,-4.8701,-4.8724,-4.8715,-4.8855,-4.8871,-4.8919,-4.9152,-4.9159,-4.8959,-4.8967,-4.8973,-4.8977,0,0,0,0,0,0,0,-4.8407,-4.8436,-4.873,-4.8643,-4.8643,-4.8619,-4.8635,-4.8788,-4.8816,-4.8704,-4.8697,-4.8719,-4.8854,-4.8906,-4.8922,-4.9161,-4.8958,-4.897,-4.8979,-4.8984,-4.9588,-4.9595,0,0,0,0,0,0,-4.8396,-4.8426,-4.8725,-4.8735,-4.851,-4.8632,-4.8651,-4.8727,-4.8815,-4.8821,-4.8725,-4.8714,-4.8886,-4.8906,-4.8928,-4.9198,-4.8973,-4.8985,-4.8993,-4.958,-4.9589,-4.9598,0,0,0,0,0,0,-4.8388,-4.8424,-4.8718,-4.8579,-4.8615,-4.8646,-4.8733,-4.8734,-4.8785,-4.883,-4.8834,-4.8773,-4.8881,-4.8909,-4.909,-4.9203,-4.8991,-4.9004,-4.9571,-4.9583,-4.9594,-4.9743,0,0,0,0,0,0,-4.8377,-4.8422,-4.8509,-4.8582,-4.8623,-4.8879,-4.874,-4.8742,-4.8809,-4.8796,-4.8876,-4.8883,-4.8878,-4.9071,-4.9104,-4.9218,-4.9014,-4.956,-4.9576,-4.959,-4.9728,-4.9758,-4.9784,0,0,0,0,0,-4.8362,-4.8544,-4.8514,-4.855,-4.8732,-4.8886,-4.8909,-4.89,-4.8819,-4.8906,-4.8935,-4.888,-4.9186,-4.909,-4.9127,-4.9246,-4.9553,-4.9572,-4.9589,-4.9715,-4.9752,-4.9783,0,0,0,0,0,0,-4.8483,-4.8553,-4.852,-4.8731,-4.8803,-4.8869,-4.8978,-4.894,-4.9036,-4.902,-4.9004,-4.9023,-4.9212,-4.9248,-4.914,-4.947,-4.9357,-4.9383,-4.944,-4.9476,-4.9503,-4.949,-4.9026,0,0,0,0,0,-4.8535,-4.8654,-4.8708,-4.8889,-4.8927,-4.8947,-4.9013,-4.9,-4.9074,-4.9104,-4.9146,-4.9219,-4.9331,-4.9406,-4.9512,-4.9733,-4.9748,-4.9833,-4.9861,-4.9884,-4.9906,-5.0024,-5.0062,-4.9656,-4.9656,-4.9656,0,0,-4.8641,-4.8694,-4.877,-4.8915,-4.8969,-4.9092,-4.8973,-4.9108,-4.9199,-4.9124,-4.9298,-4.9332,-4.9412,-4.9614,-4.9705,-4.965,-5.0022,-4.9907,-4.9925,-4.9935,-5.0047,-5.0085,-5.0119,-4.9668,-4.9666,-4.9664,0,0,-4.8898,-4.8951,-4.9107,-4.9164,-4.9247,-4.926,-4.9297,-4.9369,-4.9388,-4.9562,-4.9508,-4.9616,-4.9811,-4.987,-4.9925,-5.0205,-5.0158,-5.024,-5.0387,-5.0502,-5.0534,-5.0562,-5.066,-5.0696,-5.0263,-5.0263,-5.0263,0,-4.902,-4.9204,-4.9192,-4.9331,-4.9396,-4.9334,-4.9491,-4.9547,-4.9661,-4.9706,-4.9643,-4.9884,-4.9935,-5.0149,-5.0217,-5.0265,-5.0306,-5.023,-5.0531,-5.0559,-5.0585,-5.0678,-5.0715,-5.0272,-5.0271,-5.027,-5.0269,0,-4.9349,-4.9477,-4.9593,-4.9704,-4.9782,-4.993,-4.9939,-5.0019,-5.0,-5.0019,-5.0196,-5.0254,-5.037,-5.0421,-5.0403,-5.0633,-5.0595,-5.0532,-5.0417,-5.0633,-5.072,-5.0756,-5.0286,-5.0282,-5.028,-5.0277,0,0,-4.9686,-4.9789,-4.9831,-4.9881,-4.9969,-5.0067,-5.0212,-5.0326,-5.0394,-5.0475,-5.0595,-5.0761,-5.0702,-5.0765,-5.0754,-5.0856,-5.1071,-5.0779,-5.0781,-5.083,-5.1326,-5.1372,-5.1413,-5.1041,-5.1048,-5.1053,-5.1318,0,-4.9947,-5.0199,-5.0193,-5.0427,-5.0545,-5.0488,-5.0614,-5.0681,-5.0703,-5.0805,-5.0828,-5.0946,-5.086,-5.0898,-5.0996,-5.1024,-5.117,-5.1005,-5.1151,-5.1156,-5.1131,-5.1459,-5.1509,-5.1756,-5.1353,-5.1359,-5.1363,0,-5.0285,-5.0377,-5.0624,-5.0693,-5.0742,-5.0856,-5.0959,-5.1058,-5.1133,-5.1141,-5.1212,-5.1184,-5.133,-5.1213,-5.1412,-5.13,-5.136,-5.1383,-5.1392,-5.1404,-5.1271,-5.1478,-5.1835,-5.1871,-5.1417,-5.1412,-5.1409,0,-5.0503,-5.069,-5.086,-5.0905,-5.0991,-5.1072,-5.1111,-5.1179,-5.1248,-5.1338,-5.1382,-5.1489,-5.1546,-5.1629,-5.163,-5.1545,-5.1832,-5.1715,-5.1842,-5.1842,-5.1903,-5.1899,-5.2272,-5.1945,-5.1945,-5.1944,-5.1943,0,-5.0795,-5.0947,-5.096,-5.1065,-5.1234,-5.1225,-5.1392,-5.1424,-5.1485,-5.1594,-5.1552,-5.1656,-5.1652,-5.1758,-5.176,-5.1924,-5.1951,-5.1961,-5.1959,-5.1964,-5.1962,-5.2001,-5.1983,-5.1954,-5.1952,-5.195,-5.1948,0,-5.1066,-5.1081,-5.1264,-5.1331,-5.1351,-5.1472,-5.1529,-5.1629,-5.1646,-5.1786,-5.1818,-5.1846,-5.1968,-5.1978,-5.2119,-5.212,-5.2318,-5.2299,-5.2293,-5.2289,-5.2414,-5.2402,-5.2824,-5.2878,-5.2518,-5.2521,-5.2524,0,-5.125,-5.1366,-5.1446,-5.1516,-5.156,-5.1675,-5.1744,-5.174,-5.1814,-5.1908,-5.1996,-5.2114,-5.2207,-5.2404,-5.2437,-5.2544,-5.2526,-5.2666,-5.2541,-5.2542,-5.2525,-5.2517,-5.2528,-5.269,-5.2694,-5.2697,-5.27,0,-5.1574,-5.1576,-5.1678,-5.1784,-5.1868,-5.195,-5.2027,-5.2088,-5.2092,-5.2178,-5.2302,-5.2375,-5.2518,-5.2635,-5.274,-5.278,-5.2741,-5.2739,-5.2774,-5.2778,-5.2769,-5.2774,-5.2357,-5.2729,-5.2726,-5.2724,-5.2722,-5.2721,-5.1806,-5.1906,-5.1977,-5.2092,-5.215,-5.2223,-5.2319,-5.235,-5.2453,-5.257,-5.2561,-5.2698,-5.2769,-5.2906,-5.2954,-5.306,-5.3013,-5.3063,-5.3076,-5.3088,-5.31,-5.2754,-5.308,-5.3079,-5.3078,-5.3077,-5.3077,0,-5.2126,-5.2169,-5.2275,-5.2384,-5.2475,-5.2431,-5.2514,-5.2592,-5.2713,-5.2783,-5.2876,-5.3018,-5.3131,-5.3173,-5.3283,-5.336,-5.3344,-5.3389,-5.3382,-5.3391,-5.3137,-5.3095,-5.3399,-5.3399,-5.3399,-5.3399,-5.3399,-5.3399,-5.2303,-5.2469,-5.2479,-5.2673,-5.2715,-5.2849,-5.29,-5.2966,-5.3022,-5.3182,-5.3276,-5.3303,-5.3361,-5.3475,-5.3576,-5.3586,-5.3627,-5.3679,-5.368,-5.3442,-5.3409,-5.3378,-5.3338,-5.3688,-5.3689,-5.3925,-5.3927,-5.3929]},{"header":{"parameterUnit":"m.s-1","parameterCategory":1,"la1":30.2991,"la2":30.254,"lo1":-89.0895,"lo2":-89.0444,"dy":0.0017,"dx":0.0017,"nx":28,"ny":28,"refTime":"2024-08-21T21:00:00:Z","depth":0,"parameterNumber":3,"parameterNumberName":"V-component_of_WINDS"},"data":[0,0,0,0,0,0,0,0,0,0,0,0,0,0,0,0,0,0,0,0,0,0,0,0,0,0,0,0,0,0,0,0,0,0,0,0,0,0,0,0,0,0,0,0,0,0,0,0,0,0,0,0,0,0,0,0,0,0,-2.1652,-2.1651,0,-2.1617,-2.1617,-2.1617,-2.1575,-2.1574,-2.1574,-2.1573,-2.1537,-2.1537,-2.1537,0,0,0,0,0,0,0,0,0,0,0,0,0,-2.1679,-2.1679,-2.1652,-2.1651,-2.1651,-2.1617,-2.1617,-2.1617,-2.1575,-2.1574,-2.1574,-2.1573,-2.1538,-2.1537,-2.1537,0,0,0,0,0,0,0,0,0,0,0,0,0,-2.1658,-2.1679,-2.1652,-2.1626,-2.1623,-2.1618,-2.1617,-2.1616,-2.1575,-2.1574,-2.1573,-2.1572,-2.1538,-2.1537,-2.1537,-2.1553,0,0,-2.1535,-2.1535,0,0,0,0,0,0,0,0,-2.166,-2.1657,-2.163,-2.1628,-2.1625,-2.1599,-2.1614,-2.1595,-2.1576,-2.1594,-2.1573,-2.1572,-2.1559,-2.1557,-2.1552,-2.1551,-2.155,-2.1535,-2.1535,-2.1535,-2.1534,0,0,0,0,0,0,0,-2.1661,-2.1659,-2.1638,-2.163,-2.1627,-2.1616,-2.1612,-2.161,-2.1582,-2.1592,-2.1589,-2.1585,-2.1557,-2.1553,-2.1551,-2.1549,-2.1535,-2.1535,-2.1534,-2.1534,-2.1557,-2.1558,0,0,0,0,0,0,-2.1666,-2.166,-2.1639,-2.1637,-2.164,-2.1616,-2.1611,-2.1609,-2.1582,-2.1577,-2.1586,-2.1584,-2.1554,-2.1552,-2.155,-2.1565,-2.1535,-2.1534,-2.1534,-2.1556,-2.1558,-2.1559,0,0,0,0,0,0,-2.1667,-2.1665,-2.164,-2.1648,-2.1644,-2.1617,-2.1614,-2.1608,-2.1604,-2.1578,-2.1572,-2.1587,-2.1553,-2.155,-2.1552,-2.1563,-2.1534,-2.1533,-2.1555,-2.1557,-2.1558,-2.1597,0,0,0,0,0,0,-2.1668,-2.1666,-2.1672,-2.1648,-2.1643,-2.1644,-2.1614,-2.1608,-2.1603,-2.1599,-2.1577,-2.1572,-2.1552,-2.1553,-2.1551,-2.1562,-2.1533,-2.1554,-2.1556,-2.1558,-2.1595,-2.16,-2.1604,0,0,0,0,0,-2.1669,-2.1685,-2.1673,-2.167,-2.1651,-2.1645,-2.1642,-2.1619,-2.1605,-2.161,-2.1593,-2.1573,-2.1563,-2.1553,-2.1551,-2.1562,-2.1553,-2.1555,-2.1557,-2.1593,-2.1599,-2.1604,0,0,0,0,0,0,-2.1711,-2.1681,-2.1667,-2.1676,-2.1663,-2.1638,-2.1644,-2.1627,-2.1618,-2.1614,-2.1586,-2.1581,-2.1586,-2.1574,-2.1565,-2.1575,-2.1555,-2.1557,-2.1582,-2.1588,-2.1593,-2.1595,-2.1533,0,0,0,0,0,-2.1721,-2.1719,-2.1693,-2.1703,-2.1697,-2.1672,-2.1668,-2.1652,-2.1637,-2.1632,-2.1615,-2.1601,-2.1594,-2.1591,-2.1584,-2.1593,-2.1587,-2.1599,-2.1604,-2.1608,-2.1609,-2.1611,-2.1616,-2.1565,-2.1565,-2.1565,0,0,-2.1742,-2.1725,-2.1726,-2.1711,-2.1699,-2.1696,-2.1668,-2.1667,-2.1664,-2.1631,-2.1631,-2.1618,-2.1601,-2.1606,-2.1608,-2.1597,-2.1622,-2.1611,-2.1614,-2.1613,-2.1614,-2.1619,-2.1623,-2.1567,-2.1566,-2.1566,0,0,-2.1778,-2.1766,-2.1772,-2.1761,-2.1743,-2.1726,-2.1728,-2.1705,-2.1695,-2.1694,-2.1669,-2.1665,-2.1655,-2.1643,-2.1636,-2.1666,-2.1647,-2.1665,-2.1689,-2.1691,-2.1695,-2.1698,-2.1707,-2.1711,-2.1667,-2.1667,-2.1667,0,-2.1806,-2.1802,-2.1777,-2.1777,-2.1771,-2.1741,-2.1745,-2.1736,-2.1717,-2.1712,-2.17,-2.1686,-2.1672,-2.1673,-2.168,-2.1676,-2.1675,-2.1667,-2.1696,-2.17,-2.1702,-2.171,-2.1714,-2.1669,-2.1669,-2.1668,-2.1668,0,-2.1836,-2.1833,-2.184,-2.1822,-2.1816,-2.1819,-2.1794,-2.1791,-2.1774,-2.1758,-2.1757,-2.1739,-2.1727,-2.1726,-2.1711,-2.1724,-2.1718,-2.1702,-2.1681,-2.171,-2.1717,-2.172,-2.1672,-2.1671,-2.1671,-2.167,0,0,-2.1897,-2.1865,-2.1868,-2.1858,-2.1836,-2.1833,-2.1834,-2.1822,-2.1819,-2.1806,-2.1805,-2.1796,-2.1781,-2.1772,-2.1755,-2.1757,-2.178,-2.174,-2.1739,-2.1747,-2.1791,-2.1802,-2.1807,-2.1767,-2.1768,-2.1768,-2.1792,0,-2.1928,-2.1927,-2.1905,-2.191,-2.1906,-2.1877,-2.1878,-2.1863,-2.1848,-2.1842,-2.1825,-2.1819,-2.18,-2.1794,-2.1795,-2.1777,-2.1788,-2.1775,-2.1764,-2.1764,-2.1768,-2.1811,-2.1823,-2.1846,-2.1795,-2.1795,-2.1796,0,-2.1964,-2.1953,-2.1958,-2.1934,-2.1932,-2.1932,-2.1918,-2.1914,-2.1896,-2.1885,-2.1875,-2.1855,-2.1852,-2.1833,-2.1828,-2.182,-2.1814,-2.1804,-2.1805,-2.1802,-2.1781,-2.1807,-2.1853,-2.1856,-2.18,-2.18,-2.1799,0,-2.2006,-2.1993,-2.1993,-2.1986,-2.1959,-2.196,-2.1949,-2.1931,-2.1924,-2.1912,-2.1907,-2.1895,-2.1888,-2.1878,-2.1854,-2.1843,-2.1851,-2.1831,-2.184,-2.1841,-2.1843,-2.1843,-2.1887,-2.1842,-2.1842,-2.1842,-2.1842,0,-2.2042,-2.2045,-2.2011,-2.2012,-2.2014,-2.1988,-2.1991,-2.1977,-2.1961,-2.1957,-2.1932,-2.1928,-2.1898,-2.1891,-2.1873,-2.187,-2.1868,-2.1857,-2.1852,-2.1859,-2.186,-2.1853,-2.1851,-2.1843,-2.1842,-2.1842,-2.1842,0,-2.2088,-2.2066,-2.2064,-2.2039,-2.2032,-2.2035,-2.2012,-2.2011,-2.1994,-2.1989,-2.1986,-2.196,-2.195,-2.1925,-2.191,-2.1897,-2.1899,-2.189,-2.1904,-2.1901,-2.1911,-2.191,-2.1952,-2.1955,-2.191,-2.191,-2.191,0,-2.2112,-2.2114,-2.2088,-2.2084,-2.2073,-2.2067,-2.206,-2.2034,-2.2027,-2.2007,-2.2008,-2.1996,-2.1985,-2.197,-2.1948,-2.1935,-2.1925,-2.1941,-2.1923,-2.1929,-2.1923,-2.1923,-2.1922,-2.1945,-2.1945,-2.1946,-2.1946,0,-2.2155,-2.2144,-2.2135,-2.2122,-2.2115,-2.2103,-2.209,-2.2088,-2.2058,-2.2052,-2.2042,-2.2034,-2.2017,-2.2004,-2.1988,-2.1975,-2.1955,-2.1952,-2.1953,-2.1959,-2.1967,-2.1961,-2.1913,-2.1951,-2.1951,-2.195,-2.195,-2.195,-2.219,-2.2189,-2.2171,-2.2161,-2.2149,-2.2137,-2.2134,-2.2116,-2.2107,-2.2092,-2.2077,-2.2067,-2.2048,-2.2024,-2.2012,-2.2004,-2.1994,-2.1996,-2.1996,-2.1997,-2.1999,-2.1969,-2.2001,-2.2001,-2.2,-2.2,-2.2,0,-2.223,-2.2217,-2.2209,-2.2191,-2.2183,-2.2166,-2.215,-2.2145,-2.2137,-2.2121,-2.2111,-2.2098,-2.2085,-2.2063,-2.2048,-2.2045,-2.2036,-2.2042,-2.2041,-2.2038,-2.201,-2.2009,-2.205,-2.205,-2.205,-2.205,-2.205,-2.205,-2.225,-2.2248,-2.2235,-2.2226,-2.2212,-2.2203,-2.2195,-2.2183,-2.217,-2.2157,-2.2147,-2.2132,-2.2113,-2.2097,-2.2084,-2.2077,-2.2072,-2.2082,-2.2072,-2.2045,-2.2041,-2.2036,-2.2035,-2.2081,-2.2081,-2.2101,-2.2101,-2.2101]}]]